Other Public Products
Issued by NWS Charleston, SC

Current Version | Previous Version | Graphics & Text | Print | Product List | Glossary On
Versions: 1 2 3 4 5 6 7 8 9 10 11 12 13 14 15 16 17 18 19 20 21 22 23 24 25 26 27 28 29 30 31 32 33 34 35 36 37 38 39 40 41 42 43 44 45 46 47 48 49 50
000 FPUS82 KCHS 210127 OPUCHS TEST...KCHS/KSAV Gateway Observations...TEST National Weather Service Charleston SC 900 PM EDT SUN AUG 20 2017 NOTE: "fair" indicates few or no clouds below 12,000 feet with no significant weather and/or obstructions to visibility. SCZ050-WAZ558-NCZ071-TXZ119-213-PAZ071-DCZ001-FLZ074-172-MI076- NYZ176-178-MAZ016-IL014-TNZ027-NJZ106-GAZ044-MD014-210200- ...Gateway Observations for Charleston International... CITY SKY/WX TMP DP RH WIND PRES REMARKS Chas Airport CLOUDY 83 77 82 SE6 30.10R HX 92 Seattle MOSUNNY 75 50 41 N10 30.10F Charlotte PTCLDY 83 72 69 N5 30.12R Dallas DFW PTCLDY 92 70 48 SE12 29.93R HX 97 Dallas Love PTCLDY 93 68 43 SE14 29.94R HX 97 Philladelphia PTCLDY 81 61 50 W7 30.14R Wash National CLEAR 80 69 69 SE8 30.15R Baltimore PTCLDY 72 66 81 CALM 30.14R Miami CLOUDY 86 78 77 NE8 30.04R HX 98 Detroit CLOUDY 76 65 68 S5 30.09R Newark PTCLDY 79 58 48 W7 30.11R Laguardia PTCLDY 80 61 52 NW8 30.10R J F K PTCLDY 80 58 46 NW13 30.12R Boston Logan CLEAR 77 55 46 W7 30.06R Ft. Lauderdale MOCLDY 83 79 88 E12 30.04R HX 94 Chicago O`Hare CLOUDY 81 70 69 S10 30.02R Chicago Midway CLOUDY 83 70 64 S6 30.02R Houston Bush PTCLDY 88 74 63 SE15 29.97R HX 96 Houston Hobby PTCLDY 89 72 56 SE8 29.97R HX 96 Nashville CLOUDY 85 68 56 SE8 30.07R Atlanta PTCLDY 86 67 52 SE5 30.12R $$ GAZ044-118-TXZ119-213-NCZ071-DCZ001-MDZ014-506-PAZ021-071-NJZ106- NYZ176-178-MAZ106-OHZ011-021-055-MIZ076-KYZ091-ILZ014-INZ047- MNZ060-ONZ431-210200- ...Gateway Observations for Savannah International... CITY SKY/WX TMP DP RH WIND PRES REMARKS Savannah Arpt CLOUDY 84 77 79 SE5 30.09R HX 94 Atlanta PTCLDY 86 67 52 SE5 30.12R Charlotte PTCLDY 83 72 69 N5 30.12R Dallas DFW PTCLDY 92 70 48 SE12 29.93R HX 97 Houston Bush PTCLDY 88 74 63 SE15 29.97R HX 96 Wash National CLEAR 80 69 69 SE8 30.15R Wash Dulles PTCLDY 74 66 76 E3 30.15R Baltimore PTCLDY 72 66 81 CALM 30.14R Philadelphia PTCLDY 81 61 50 W7 30.14R Newark PTCLDY 79 58 48 W7 30.11R Laguardia PTCLDY 80 61 52 NW8 30.10R J F K PTCLDY 80 58 46 NW13 30.12R Boston CLEAR 77 55 46 W7 30.06R Pittsburg PTCLDY 77 64 64 CALM 30.15R Akron PTCLDY 78 62 57 SE7 30.13R Cleveland MOCLDY 79 63 57 N3 30.11R Cincinnati CLOUDY 78 70 76 S3 30.09S Columbus CLEAR 76 72 88 SE5 30.09S Detroit CLOUDY 76 65 68 S5 30.09R Chicago O`Hare CLOUDY 81 70 69 S10 30.02R Minneapolis PTCLDY 79 65 62 NW12 29.97R Indianapolis PTCLDY 82 66 58 SE7 30.04F Toronto Canada PTCLDY 75 61 60 NW6 30.07R $$

USA.gov is the U.S. government's official web portal to all federal, state and local government web resources and services.